Meath Environmental Platform

Observations for Trim Market St

Time AQI Temp °C Hum % Pres Pa CO μg/m³ H₂S μg/m³ NO μg/m³ NO₂ μg/m³ O₃ μg/m³ SO₂ μg/m³ PM1 μg/m³ PM2.5 μg/m³ PM10 μg/m³
Monday 24 August 2026
05:37 1 8.3 79 33,947 0.64 0 4.77 13.91 5.71 0 4.28 5.94 9.25
05:36 1 8.3 79 33,935 0.64 0 5.71 14.05 5.09 0 2.85 3.1 5.81
05:29 1 8.4 79 34,008 0.65 0 10.6 15.95 3.54 0 2.14 3.58 6.38
05:28 1 8.4 79 34,108 0.65 0 10.6 16.22 3.2 0 4.28 4.52 7.53
05:25 1 8.4 79 34,495 0.65 0 9.19 14.48 4.18 0 4.28 4.53 8.11
05:23 1 8.4 79 34,797 0.64 0 7.17 13.93 3.35 0 4.99 5.47 9.25
05:17 1 8.4 79 35,230 0.64 0 4.97 13.47 5.41 0 4.99 5.95 9.25
05:13 1 8.5 79 34,929 0.63 0 6.09 12.34 5.42 0 4.28 5 8.11
05:12 1 8.5 79 34,857 0.63 0 6.09 12.91 4.45 0 3.56 5 8.68
05:11 1 8.5 79 34,808 0.63 0 5.98 13.68 5.81 0 4.28 5.47 9.83
05:10 1 8.5 79 34,763 0.63 0 6.57 12.6 2.16 0 3.56 4.53 8.11
05:09 1 8.5 79 34,699 0.63 0 7.94 12 3.06 0 2.85 3.58 6.38
05:08 1 8.5 79 34,676 0.62 0 7.89 12.34 3.81 0 2.85 5.95 9.25
05:07 1 8.5 79 34,750 0.63 0 7.71 13.05 9.53 0 4.28 5.01 8.11
05:06 1 8.5 79 34,877 0.63 0 7.66 15.54 4.3 0 4.28 5.95 9.83
05:05 1 8.5 79 35,062 0.64 0 7.85 15.83 7.65 0 4.99 5.95 9.25
05:04 1 8.6 79 35,237 0.62 0 5.92 12.96 6.28 0 3.56 4.53 7.53
05:03 1 8.5 79 35,344 0.64 0 5.44 14.12 6.78 0 4.28 5.48 9.25
05:02 1 8.6 79 35,475 0.64 0 6.02 13.71 7.96 0 4.28 4.54 7.53
05:01 1 8.6 79 35,620 0.64 0 9.44 12.36 10.41 0 4.99 5.96 9.26